TimeCST,TemperatureF,Dew PointF,Humidity,Sea Level PressureIn,VisibilityMPH,Wind Direction,Wind SpeedMPH,Gust SpeedMPH,PrecipitationIn,Events,Conditions,WindDirDegrees,DateUTC
12:15 AM,28.4,21.2,74,30.22,10.0,Calm,Calm,-,N/A,,Clear,0,2013-03-03 06:15:00
12:35 AM,28.4,21.2,74,30.21,10.0,Calm,Calm,-,N/A,,Clear,0,2013-03-03 06:35:00
12:55 AM,28.4,21.2,74,30.22,10.0,Calm,Calm,-,N/A,,Clear,0,2013-03-03 06:55:00
1:15 AM,28.4,21.2,74,30.22,10.0,Calm,Calm,-,N/A,,Clear,0,2013-03-03 07:15:00
1:35 AM,28.4,21.2,74,30.22,10.0,Calm,Calm,-,N/A,,Clear,0,2013-03-03 07:35:00
1:55 AM,28.4,21.2,74,30.22,10.0,Calm,Calm,-,N/A,,Clear,0,2013-03-03 07:55:00
2:15 AM,26.6,21.2,80,30.22,10.0,Calm,Calm,-,N/A,,Clear,0,2013-03-03 08:15:00
2:35 AM,26.6,21.2,80,30.21,10.0,Calm,Calm,-,N/A,,Clear,0,2013-03-03 08:35:00
2:55 AM,26.6,21.2,80,30.21,10.0,Calm,Calm,-,N/A,,Clear,0,2013-03-03 08:55:00
3:15 AM,26.6,21.2,80,30.20,10.0,Calm,Calm,-,N/A,,Clear,0,2013-03-03 09:15:00
3:35 AM,26.6,21.2,80,30.20,10.0,Calm,Calm,-,N/A,,Clear,0,2013-03-03 09:35:00
3:55 AM,26.6,21.2,80,30.20,10.0,Calm,Calm,-,N/A,,Clear,0,2013-03-03 09:55:00
4:15 AM,26.6,21.2,80,30.19,10.0,West,3.5,-,N/A,,Clear,270,2013-03-03 10:15:00
4:35 AM,26.6,21.2,80,30.19,10.0,Calm,Calm,-,N/A,,Clear,0,2013-03-03 10:35:00
4:55 AM,24.8,21.2,86,30.20,10.0,Calm,Calm,-,N/A,,Clear,0,2013-03-03 10:55:00
5:15 AM,24.8,21.2,86,30.20,10.0,Calm,Calm,-,N/A,,Clear,0,2013-03-03 11:15:00
5:35 AM,24.8,21.2,86,30.20,10.0,Calm,Calm,-,N/A,,Clear,0,2013-03-03 11:35:00
6:55 AM,24.8,19.4,80,30.20,20.0,NW,5.8,-,N/A,,Clear,320,2013-03-03 12:55:00
7:55 AM,26.6,21.2,80,30.21,20.0,North,5.8,-,N/A,,Clear,350,2013-03-03 13:55:00
9:55 AM,30.2,17.6,60,30.21,20.0,NW,5.8,-,N/A,,Clear,310,2013-03-03 15:55:00
12:55 PM,37.4,19.4,48,30.16,20.0,WSW,5.8,-,N/A,,Scattered Clouds,240,2013-03-03 18:55:00
1:55 PM,39.2,19.4,45,30.13,20.0,West,4.6,-,N/A,,Mostly Cloudy,260,2013-03-03 19:55:00
2:55 PM,39.2,17.6,42,30.12,20.0,NNW,3.5,-,N/A,,Mostly Cloudy,330,2013-03-03 20:55:00
3:55 PM,39.2,17.6,42,30.10,20.0,NE,3.5,-,N/A,,Mostly Cloudy,50,2013-03-03 21:55:00
4:55 PM,39.2,21.2,49,30.09,20.0,NE,4.6,-,N/A,,Mostly Cloudy,50,2013-03-03 22:55:00
5:55 PM,39.2,21.2,49,30.09,20.0,NE,5.8,-,N/A,,Mostly Cloudy,50,2013-03-03 23:55:00
7:15 PM,37.4,23.0,56,30.10,10.0,ENE,3.5,-,N/A,,Overcast,70,2013-03-04 01:15:00
7:35 PM,37.4,23.0,56,30.10,10.0,ENE,3.5,-,N/A,,Overcast,70,2013-03-04 01:35:00
7:55 PM,35.6,23.0,60,30.10,10.0,Calm,Calm,-,N/A,,Overcast,0,2013-03-04 01:55:00
8:15 PM,37.4,23.0,56,30.10,10.0,Calm,Calm,-,N/A,,Overcast,0,2013-03-04 02:15:00
8:35 PM,35.6,23.0,60,30.10,10.0,SE,3.5,-,N/A,,Overcast,130,2013-03-04 02:35:00
8:55 PM,35.6,23.0,60,30.10,10.0,SE,3.5,-,N/A,,Overcast,140,2013-03-04 02:55:00
9:15 PM,37.4,24.8,60,30.10,10.0,South,4.6,-,N/A,,Overcast,170,2013-03-04 03:15:00
9:35 PM,37.4,24.8,60,30.09,10.0,SE,3.5,-,N/A,,Overcast,140,2013-03-04 03:35:00
9:55 PM,37.4,26.6,65,30.09,10.0,Calm,Calm,-,N/A,,Overcast,0,2013-03-04 03:55:00
10:15 PM,37.4,26.6,65,30.09,10.0,SE,3.5,-,N/A,,Overcast,140,2013-03-04 04:15:00
10:35 PM,37.4,26.6,65,30.10,10.0,Calm,Calm,-,N/A,,Overcast,0,2013-03-04 04:35:00
10:55 PM,37.4,26.6,65,30.10,10.0,Calm,Calm,-,N/A,,Overcast,0,2013-03-04 04:55:00
11:15 PM,35.6,26.6,70,30.10,10.0,SE,3.5,-,N/A,,Overcast,140,2013-03-04 05:15:00
11:35 PM,37.4,26.6,65,30.10,10.0,SE,3.5,-,N/A,,Overcast,140,2013-03-04 05:35:00
11:55 PM,37.4,26.6,65,30.10,10.0,SE,3.5,-,N/A,,Overcast,130,2013-03-04 05:55:00